Вернуться в каталог

KUIPER-00639

АктивенСвязьVLEO
NORAD 69786·PAYLOAD·🇺🇸 United States

Запущен Jul 2, 2026 с Cape Canaveral Space Force Station

Loading…

Ближайшие Пролёты (ближайшие 24 часа)

TLE

СвежийSource: CelesTrak SupGP

Эпоха: Sep 14, 2026, 16:21 UTC

1 69786C 26151Z   26257.68170139 -.00993340  00000+0 -94288-1 0  2576
2 69786  51.8947 247.7845 0010295  24.7816 247.9885 14.93991282    16

Отслеживайте KUIPER-00639 в реальном времени с AllMySat

Download on the App Store